[[{"header":{"parameterUnit":"m.s-1","parameterCategory":1,"la1":30.2992,"la2":30.254,"lo1":-89.0895,"lo2":-89.0443,"dy":0.0025,"dx":0.0025,"nx":19,"ny":19,"refTime":"2026-04-03T21:00:00:Z","depth":0,"parameterNumber":2,"parameterNumberName":"U-component_of_WINDS"},"data":[0,0,0,-3.9231,-3.9235,-3.9422,-3.9423,-3.9658,-3.966,0,0,0,0,0,0,0,0,0,0,0,-3.9172,-3.9174,-3.9231,-3.9235,-3.9422,-3.9423,-3.9658,-3.966,0,0,0,0,0,0,0,0,0,0,0,-3.9172,-3.9174,-3.9175,-3.9236,-3.9422,-3.9423,-3.9657,-3.9518,0,0,0,0,0,0,0,0,0,0,-3.9337,-3.9279,-3.9173,-3.9175,-3.9237,-3.9422,-3.9423,-3.9511,-3.9527,-3.9572,0,-3.961,0,-3.9639,-3.9676,-3.9677,0,0,0,-3.9238,-3.9266,-3.932,-3.9176,-3.9239,-3.9422,-3.9339,-3.952,-3.9537,-3.9592,-3.9613,-3.9622,-3.9643,-3.9677,-3.9678,-3.9928,-3.9929,0,0,-3.9228,-3.9204,-3.9308,-3.9331,-3.9301,-3.9333,-3.9344,-3.953,-3.9552,-3.9614,-3.9628,-3.9647,-3.9679,-3.9681,-3.9927,-3.9928,0,0,0,-3.9196,-3.9197,-3.9246,-3.9321,-3.9355,-3.9338,-3.9352,-3.9544,-3.9562,-3.963,-3.9649,-3.968,-3.9683,-3.9926,-3.9928,-3.9955,0,0,0,-3.919,-3.9179,-3.9241,-3.9229,-3.9352,-3.9452,-3.9361,-3.9549,-3.9571,-3.9648,-3.968,-3.9685,-3.9925,-3.9927,-3.9952,-3.9971,0,0,0,-3.9161,-3.9175,-3.9201,-3.9227,-3.9307,-3.9449,-3.9478,-3.9554,-3.9583,-3.9677,-3.9686,-3.9924,-3.9927,-3.9949,-3.9967,-4.0029,0,0,0,-3.9124,-3.9223,-3.9201,-3.932,-3.9305,-3.9465,-3.9477,-3.9598,-3.9682,-3.9681,-3.9925,-3.9927,-3.9948,-3.9964,-4.0026,-4.0076,-4.0096,0,0,-3.9236,-3.9236,-3.9308,-3.9294,-3.9452,-3.9439,-3.9602,-3.9701,-3.9732,-3.9861,-3.9868,-3.9953,-3.9967,-4.0029,-4.0215,-4.023,0,0,0,-3.9336,-3.9387,-3.9434,-3.9513,-3.9592,-3.9661,-3.9738,-3.9775,-3.9886,-3.9794,-3.9995,-4.0003,-4.0041,-4.0066,-4.0078,-4.0112,-3.9939,-3.9938,-3.9938,-3.9459,-3.9494,-3.9615,-3.9673,-3.975,-3.9829,-3.9895,-3.9959,-3.9971,-4.0018,-4.0056,-4.0164,-4.0193,-4.0203,-4.0237,-4.0087,-4.0087,-4.0087,-4.0087,-3.9626,-3.9703,-3.9719,-3.9841,-3.9878,-3.9982,-4.0064,-4.007,-4.0172,-4.0139,-4.0173,-4.0131,-4.0218,-4.025,-4.009,-4.0089,-4.0089,-4.0089,-4.0089,-3.9708,-3.9751,-3.9796,-3.9914,-4.0002,-4.0059,-4.0156,-4.0187,-4.0217,-4.0251,-4.0294,-4.0294,-4.0296,-4.027,-4.0271,-4.0271,-4.0271,-4.0272,-4.0272,-3.9775,-3.9825,-3.9903,-3.9996,-4.0052,-4.0129,-4.0212,-4.0268,-4.0337,-4.0352,-4.0353,-4.036,-4.0221,-4.0184,-4.0278,-4.0277,-4.0276,-4.0275,-4.0275,-3.9927,-3.9898,-4.0018,-4.0074,-4.0187,-4.0273,-4.0312,-4.0423,-4.0474,-4.0522,-4.0524,-4.0416,-4.0418,-4.0408,-4.0377,-4.0516,-4.0516,-4.0516,-4.0516,-3.9995,-4.0,-4.013,-4.0217,-4.0307,-4.0355,-4.0491,-4.0558,-4.0622,-4.0657,-4.0642,-4.0605,-4.0594,-4.0602,-4.0588,-4.056,-4.0742,-4.0742,-4.0742,-4.009,-4.0105,-4.0213,-4.0276,-4.0367,-4.0446,-4.0575,-4.0675,-4.0743,-4.0752,-4.0684,-4.0674,-4.0615,-4.0595,-4.0598,-4.0576,-4.0525,0,0]},{"header":{"parameterUnit":"m.s-1","parameterCategory":1,"la1":30.2992,"la2":30.254,"lo1":-89.0895,"lo2":-89.0443,"dy":0.0025,"dx":0.0025,"nx":19,"ny":19,"refTime":"2026-04-03T21:00:00:Z","depth":0,"parameterNumber":3,"parameterNumberName":"V-component_of_WINDS"},"data":[0,0,0,3.1369,3.137,3.1445,3.1445,3.1546,3.1547,0,0,0,0,0,0,0,0,0,0,0,3.1351,3.1351,3.1368,3.137,3.1445,3.1445,3.1546,3.1547,0,0,0,0,0,0,0,0,0,0,0,3.135,3.1351,3.1352,3.1371,3.1445,3.1446,3.1546,3.1487,0,0,0,0,0,0,0,0,0,0,3.1413,3.1401,3.1351,3.1352,3.1371,3.1445,3.1446,3.1484,3.1491,3.1515,0,3.1539,0,3.1545,3.1554,3.1555,0,0,0,3.1367,3.1396,3.1413,3.1352,3.1372,3.1445,3.141,3.1488,3.1495,3.1524,3.154,3.1543,3.1546,3.1555,3.1556,3.1711,3.1712,0,0,3.1363,3.1366,3.1407,3.1418,3.1408,3.1408,3.1413,3.1492,3.1509,3.154,3.1546,3.1548,3.1556,3.1557,3.1711,3.1712,0,0,0,3.1353,3.1363,3.1378,3.1414,3.1427,3.141,3.1416,3.1506,3.1511,3.1547,3.1549,3.1556,3.1558,3.171,3.1711,3.176,0,0,0,3.1351,3.1358,3.1376,3.1379,3.1426,3.1468,3.1428,3.1505,3.1514,3.1549,3.1556,3.1559,3.1709,3.171,3.1757,3.1783,0,0,0,3.1344,3.1357,3.1369,3.1379,3.1411,3.1466,3.1475,3.1507,3.1516,3.1555,3.1559,3.1708,3.171,3.1754,3.1778,3.1826,0,0,0,3.1338,3.141,3.137,3.1452,3.1411,3.1497,3.1475,3.1538,3.1577,3.1557,3.1709,3.1711,3.1753,3.1775,3.1823,3.1868,3.1887,0,0,3.1431,3.1421,3.1469,3.1436,3.153,3.1485,3.1586,3.1618,3.1617,3.168,3.1683,3.1758,3.1777,3.1826,3.1992,3.2007,0,0,0,3.15,3.1534,3.1559,3.1598,3.1625,3.1651,3.1668,3.168,3.1733,3.165,3.1788,3.1799,3.1828,3.1849,3.1862,3.1887,3.1721,3.172,3.172,3.1635,3.1633,3.1713,3.1721,3.1758,3.1776,3.1807,3.1826,3.181,3.1843,3.1862,3.1963,3.1988,3.1998,3.2024,3.1885,3.1885,3.1885,3.1885,3.1772,3.1821,3.1802,3.1873,3.187,3.1928,3.1948,3.1936,3.199,3.1948,3.1973,3.1928,3.2015,3.2037,3.1889,3.1888,3.1888,3.1887,3.1887,3.1861,3.1884,3.1899,3.1958,3.2002,3.2007,3.2061,3.2055,3.205,3.2075,3.2095,3.2094,3.2093,3.2085,3.2085,3.2085,3.2086,3.2086,3.2086,3.1947,3.1963,3.201,3.2048,3.2073,3.2106,3.2126,3.2151,3.2177,3.2168,3.2168,3.2151,3.2024,3.1993,3.2092,3.2091,3.209,3.2089,3.2089,3.2088,3.2056,3.2129,3.2155,3.22,3.2245,3.2238,3.229,3.2309,3.2336,3.2314,3.222,3.221,3.2199,3.2174,3.2313,3.2313,3.2313,3.2313,3.2164,3.2159,3.2233,3.2276,3.2316,3.2319,3.2401,3.2417,3.2429,3.2441,3.242,3.2385,3.2375,3.237,3.2356,3.2332,3.2509,3.2509,3.2509,3.2251,3.225,3.2322,3.2335,3.237,3.24,3.2478,3.2526,3.2533,3.2517,3.2451,3.2442,3.2386,3.2368,3.235,3.2329,3.2284,0,0]}]]